Regional Weather Roundup
Issued by NWS

Home | Current Version | Previous Version | Text Only | Print | Product List | Glossary On
Versions: 1 2 3 4 5 6 7 8 9 10 11 12 13 14 15 16 17 18 19 20 21 22 23 24 25 26 27 28 29 30 31 32 33 34 35 36 37 38 39 40 41 42 43 44 45 46 47 48 49 50
000
ASUS44 KMEG 240610
RWRTN
TENNESSEE HOURLY STATE WEATHER ROUNDUP
NATIONAL WEATHER SERVICE MEMPHIS TN
1200 AM CST FRI FEB 24 2017

TNZ002-004-019-021-049-052-054-088>092-240700-
WEST TENNESSEE

CITY           SKY/WX    TMP DP  RH WIND       PRES   REMARKS
MEMPHIS INTL   CLEAR     64  59  83 S12       29.67F
NWS MEMPHIS      N/A     63 N/A N/A MISG        N/A
JACKSON        CLEAR     64  58  80 S13G21    29.69F
UNION CITY     CLEAR     63  63 100 S10       29.66S
PARIS          CLEAR     61  55  82 S12       29.70S
HUNTINGDON     CLEAR     64  57  77 S15G22    29.69S
$$

TNZ008-025-027-028-033-062-065-066-240700-
NORTH MIDDLE TENNESSEE

CITY           SKY/WX    TMP DP  RH WIND       PRES   REMARKS
NASHVILLE      PTCLDY    63  54  72 S12       29.76S
PORTLAND       CLEAR     63  55  77 S14       29.74S
CLARKSVILLE    CLEAR     63  54  72 S12       29.71S
SMYRNA         PTCLDY    61  55  81 S8        29.77S
COOKEVILLE     PTCLDY    61  54  77 SE7       29.79S
GALLATIN       CLEAR     63  55  77 S5        29.78S
CROSSVILLE     CLEAR     61  49  64 VRB7      29.84F
$$

TNZ061-075-076-078-094-096-097-240700-
SOUTH MIDDLE TENNESSEE

CITY           SKY/WX    TMP DP  RH WIND       PRES   REMARKS
FAYETTEVILLE   CLEAR     61  55  82 S9        29.81R
TULLAHOMA      CLEAR     61  54  77 S5        29.81S
WINCHESTER     CLEAR     63  54  72 S5        29.81S
MCMINNVILLE    CLEAR     64  55  72 S5        29.80F
COLUMBIA       CLEAR     63  63 100 S8        29.75S
SHELBYVILLE    CLEAR     63  57  82 S9        29.79S
$$

TNZ017-018-042-046-047-240700-
NORTHEAST TENNESSEE

CITY           SKY/WX    TMP DP  RH WIND       PRES   REMARKS
TRI CITIES     NOT AVBL
ELIZABETHTON   CLOUDY    52  48  87 E3        29.88F
$$

TNZ012-013-036-069-073-074-240700-
CENTRAL EAST TENNESSEE

CITY           SKY/WX    TMP DP  RH WIND       PRES   REMARKS
KNOXVILLE      NOT AVBL
OAK RIDGE      CLOUDY    55  52  89 SW3       29.85S
GATLINBURG     CLEAR     50  48  93 CALM      29.84S
MORRISTOWN     CLEAR     57  52  82 CALM      29.84S
JACKSBORO      CLEAR     50  50 100 N5        29.86S
$$

TNZ083-085-099-240700-
SOUTHEAST TENNESSEE

CITY           SKY/WX    TMP DP  RH WIND       PRES   REMARKS
CHATTANOOGA    CLEAR     54  51  90 CALM      29.84S
$$

SKY/WX REPORTED AS FAIR MEANS FEW OR NO CLOUDS BELOW
12 THOUSAND FEET.





USA.gov is the U.S. government's official web portal to all federal, state and local government web resources and services.